Regional Weather Roundup
Issued by NWS

Home | Current Version | Previous Version | Graphics & Text | Print | Product List | Glossary On
Versions: 1 2 3 4 5 6 7 8 9 10 11 12 13 14 15 16 17 18 19 20 21 22 23 24 25 26 27 28 29 30 31 32 33 34 35 36 37 38 39 40 41 42 43 44 45 46 47 48
000
ASUS45 KSLC 241410
RWRUT

UTAH REGIONAL WEATHER ROUNDUP
NATIONAL WEATHER SERVICE SALT LAKE CITY UT
700 AM MST WED DEC 24 2014

UTZ001>011-023>025-241500-

NORTHERN UTAH

CITY           SKY/WX    TMP DP  RH WIND       PRES   REMARKS
BRIGHAM CITY   PTCLDY    27  22  81 CALM      30.14F
HILL AFB       PTCLDY    25  13  59 SE13      30.12F WCI  14
LOGAN          MOCLDY    26  21  81 CALM      30.12F
OGDEN          PTCLDY    25  15  66 S8        30.13F WCI  16
PROVO AIRPORT  NOT AVBL
SALT LAKE CITY PTCLDY    29  20  69 SE10      30.13F WCI  20
VERNAL         MOCLDY    17  10  74 W3        30.19S
WENDOVER       PTCLDY    23  16  74 NE7       30.09F WCI  15
HEBER CITY     PTCLDY    16  12  86 CALM      30.17F
WEST JORDAN    CLEAR     28  21  74 S13       30.14F WCI  18

$$

UTZ012>022-026-027-241500-

SOUTHERN/CENTRAL UTAH

CITY           SKY/WX    TMP DP  RH WIND       PRES   REMARKS
BLANDING       CLEAR     19  13  76 CALM      30.25S
BRYCE CANYON   PTCLDY    14   9  80 N5        30.18S WCI   6
CEDAR CITY     PTCLDY    21  12  68 S5        30.16F WCI  15
DELTA          MOCLDY    22  20  89 E3        30.17F
MILFORD        MOCLDY    20  13  74 S10       30.17F WCI   9
MOAB/CYNLANDS  CLEAR     23  16  74 SE7       30.21S WCI  15
PRICE          MOCLDY    20  11  68 CALM      30.17S
ST GEORGE      MOSUNNY   30  10  43 CALM      30.25F
KANAB          CLEAR     19  18  93 N3        30.26R

$$

REGIONAL REPORTS     COLORADO/ARIZONA

CITY           SKY/WX    TMP DP  RH WIND       PRES   REMARKS
CRAIG, CO      PTCLDY     2  -3  80 S5        30.18S WCI  -8
GRAND JUNCTION CLEAR     20  13  74 SE8       30.24S WCI  10
RIFLE          PTCLDY    11   5  77 E5        30.27S WCI   3
MONTROSE       PTCLDY    12   6  77 S6        30.26R WCI   3
CORTEZ         CLEAR     15   8  73 NE8       30.18R WCI   4
PAGE, AZ       PTCLDY    29  13  51 CALM      30.22R
GRAND CANYON   PTCLDY    11   7  84 NE5       30.22R WCI   3
KINGMAN        CLEAR     32  17  54 SE10      30.19F WCI  24
FLAGSTAFF      CLEAR     16   6  65 CALM      30.20R

$$

REGIONAL REPORTS    NEVADA/IDAHO/WYOMING

CITY           SKY/WX    TMP DP  RH WIND       PRES   REMARKS
LAS VEGAS, NV  PTCLDY    40  22  48 SW8       30.15F WCI  34
ELY            PTCLDY    20  16  84 SE10      30.11F WCI   9
ELKO           CLEAR     22  19  89 CALM      30.05R
POCATELLO, ID  MOCLDY    34  20  56 VRB5      30.00F WCI  30
BURLEY         MOCLDY    35  20  54 S18G24    29.95F WCI  24
EVANSTON, WY   CLOUDY    19  11  70 SW12      30.06F WCI   7
ROCK SPRINGS   CLOUDY    21  10  62 W25       30.04F WCI   4

$$


USA.gov is the U.S. government's official web portal to all federal, state and local government web resources and services.